Location: Unspecified
(0.0000°N, 0.0000°E)
Time: 21:26:25
(UTC+00:00)

COSMOS 1275 DEB - Pass Details

Date: 23 March 2026
Orbit: 902 x 973 km, 82.9° (Epoch: 8 April)

Event Time Altitude Azimuth Distance (km) Brightness Sun altitude
Rises 18:18:09 0° 350° (N) 3,651 ? -2.9°
Reaches altitude 10° 18:20:41 10° 347° (NNW) 2,704 ? -3.5°
Maximum altitude 18:26:48 63° 267° (W) 1,069 ? -5.1°
Drops below altitude 10° 18:32:52 10° 187° (S) 2,682 ? -6.6°
Sets 18:35:23 0° 183° (S) 3,620 ? -7.2°
